Year,Month,Day,Hour,Minute,Value (Times are PST for windspeed in km/hr)
2017,04,05,00,00,16.80
2017,04,05,00,01,17.00
2017,04,05,00,02,7.10
2017,04,05,00,03,13.00
2017,04,05,00,04,18.90
2017,04,05,00,05,15.70
2017,04,05,00,06,23.50
2017,04,05,00,07,19.70
2017,04,05,00,08,8.60
2017,04,05,00,09,21.10
2017,04,05,00,10,22.30
2017,04,05,00,11,12.30
2017,04,05,00,12,14.30
2017,04,05,00,13,22.20
2017,04,05,00,14,17.20
2017,04,05,00,15,16.40
2017,04,05,00,16,22.50
2017,04,05,00,17,16.90
2017,04,05,00,18,9.70
2017,04,05,00,19,21.90
2017,04,05,00,20,23.10
2017,04,05,00,21,14.70
2017,04,05,00,22,18.00
2017,04,05,00,23,12.40
2017,04,05,00,24,15.00
2017,04,05,00,25,16.20
2017,04,05,00,26,15.90
2017,04,05,00,27,16.60
2017,04,05,00,28,22.00
2017,04,05,00,29,16.80
2017,04,05,00,30,17.70
2017,04,05,00,31,17.60
2017,04,05,00,32,15.60
2017,04,05,00,33,22.00
2017,04,05,00,34,22.70
2017,04,05,00,35,17.90
2017,04,05,00,36,18.10
2017,04,05,00,37,18.80
2017,04,05,00,38,19.90
2017,04,05,00,39,16.40
2017,04,05,00,40,22.70
2017,04,05,00,41,19.50
2017,04,05,00,42,16.40
2017,04,05,00,43,23.60
2017,04,05,00,44,16.80
2017,04,05,00,45,15.00
2017,04,05,00,46,20.20
2017,04,05,00,47,18.40
2017,04,05,00,48,17.60
2017,04,05,00,49,19.90
2017,04,05,00,50,16.50
2017,04,05,00,51,20.90
2017,04,05,00,52,19.10
2017,04,05,00,53,16.40
2017,04,05,00,54,10.50
2017,04,05,00,55,19.50
2017,04,05,00,56,20.00
2017,04,05,00,57,19.30
2017,04,05,00,58,19.80
2017,04,05,00,59,24.30
2017,04,05,01,00,16.30
2017,04,05,01,01,15.30
2017,04,05,01,02,15.50
2017,04,05,01,03,20.70
2017,04,05,01,04,17.40
2017,04,05,01,05,15.70
2017,04,05,01,06,7.80
2017,04,05,01,07,14.10
2017,04,05,01,08,15.30
2017,04,05,01,09,12.60
2017,04,05,01,10,24.80
2017,04,05,01,11,18.50
2017,04,05,01,12,15.20
2017,04,05,01,13,18.80
2017,04,05,01,14,17.60
2017,04,05,01,15,13.80
2017,04,05,01,16,19.00
2017,04,05,01,17,19.10
2017,04,05,01,18,20.90
2017,04,05,01,19,22.20
2017,04,05,01,20,25.90
2017,04,05,01,21,20.90
2017,04,05,01,22,17.20
2017,04,05,01,23,19.50
2017,04,05,01,24,18.90
2017,04,05,01,25,21.10
2017,04,05,01,26,20.00
2017,04,05,01,27,24.50
2017,04,05,01,28,22.90
2017,04,05,01,29,15.00
2017,04,05,01,30,20.70
2017,04,05,01,31,22.90
2017,04,05,01,32,26.90
2017,04,05,01,33,24.80
2017,04,05,01,34,23.30
2017,04,05,01,35,12.00
2017,04,05,01,36,16.30
2017,04,05,01,37,13.70
2017,04,05,01,38,15.50
2017,04,05,01,39,18.50
2017,04,05,01,40,18.60
2017,04,05,01,41,19.10
2017,04,05,01,42,13.00
2017,04,05,01,43,15.40
2017,04,05,01,44,26.70
2017,04,05,01,45,22.90
2017,04,05,01,46,21.80
2017,04,05,01,47,20.30
2017,04,05,01,48,21.80
2017,04,05,01,49,14.10
2017,04,05,01,50,19.70
2017,04,05,01,51,22.10
2017,04,05,01,52,18.80
2017,04,05,01,53,24.30
2017,04,05,01,54,12.70
2017,04,05,01,55,17.10
2017,04,05,01,56,26.70
2017,04,05,01,57,22.20
2017,04,05,01,58,26.20
2017,04,05,01,59,22.40
2017,04,05,02,00,15.00
2017,04,05,02,01,17.80
2017,04,05,02,02,22.10
2017,04,05,02,03,18.50
2017,04,05,02,04,27.10
2017,04,05,02,05,15.60
2017,04,05,02,06,19.40
2017,04,05,02,07,24.10
2017,04,05,02,08,22.00
2017,04,05,02,09,16.30
2017,04,05,02,10,14.90
2017,04,05,02,11,20.00
2017,04,05,02,12,19.90
2017,04,05,02,13,20.10
2017,04,05,02,14,15.30
2017,04,05,02,15,12.20
2017,04,05,02,16,17.40
2017,04,05,02,17,18.40
2017,04,05,02,18,17.80
2017,04,05,02,19,9.80
2017,04,05,02,20,13.00
2017,04,05,02,21,28.10
2017,04,05,02,22,25.50
2017,04,05,02,23,17.10
2017,04,05,02,24,19.00
2017,04,05,02,25,19.80
2017,04,05,02,26,13.80
2017,04,05,02,27,17.70
2017,04,05,02,28,19.20
2017,04,05,02,29,24.80
2017,04,05,02,30,19.90
2017,04,05,02,31,23.50
2017,04,05,02,32,23.70
2017,04,05,02,33,19.40
2017,04,05,02,34,7.20
2017,04,05,02,35,14.50
2017,04,05,02,36,13.20
2017,04,05,02,37,23.40
2017,04,05,02,38,19.10
2017,04,05,02,39,24.50
2017,04,05,02,40,19.80
2017,04,05,02,41,21.50
2017,04,05,02,42,17.30
2017,04,05,02,43,23.50
2017,04,05,02,44,15.60
2017,04,05,02,45,11.40
2017,04,05,02,46,19.90
2017,04,05,02,47,22.20
2017,04,05,02,48,14.00
2017,04,05,02,49,19.60
2017,04,05,02,50,13.20
2017,04,05,02,51,19.20
2017,04,05,02,52,21.40
2017,04,05,02,53,20.80
2017,04,05,02,54,21.80
2017,04,05,02,55,24.70
2017,04,05,02,56,14.70
2017,04,05,02,57,13.70
2017,04,05,02,58,14.70
2017,04,05,02,59,13.40
2017,04,05,03,00,17.90
2017,04,05,03,01,20.80
2017,04,05,03,02,19.10
2017,04,05,03,03,7.30
2017,04,05,03,04,18.10
2017,04,05,03,05,11.80
2017,04,05,03,06,19.80
2017,04,05,03,07,16.40
2017,04,05,03,08,16.90
2017,04,05,03,09,15.80
2017,04,05,03,10,15.90
2017,04,05,03,11,17.10
2017,04,05,03,12,13.20
2017,04,05,03,13,17.20
2017,04,05,03,14,17.60
2017,04,05,03,15,20.60
2017,04,05,03,16,14.90
2017,04,05,03,17,14.00
2017,04,05,03,18,18.50
2017,04,05,03,19,22.80
2017,04,05,03,20,19.70
2017,04,05,03,21,15.80
2017,04,05,03,22,18.30
2017,04,05,03,23,20.50
2017,04,05,03,24,16.00
2017,04,05,03,25,15.70
2017,04,05,03,26,16.00
2017,04,05,03,27,19.70
2017,04,05,03,28,16.10
2017,04,05,03,29,20.90
2017,04,05,03,30,12.50
2017,04,05,03,31,12.50
2017,04,05,03,32,12.60
2017,04,05,03,33,19.50
2017,04,05,03,34,17.40
2017,04,05,03,35,12.40
2017,04,05,03,36,15.50
2017,04,05,03,37,12.90
2017,04,05,03,38,18.50
2017,04,05,03,39,22.10
2017,04,05,03,40,20.50
2017,04,05,03,41,15.50
2017,04,05,03,42,17.80
2017,04,05,03,43,10.90
2017,04,05,03,44,21.70
2017,04,05,03,45,21.60
2017,04,05,03,46,14.80
2017,04,05,03,47,19.60
2017,04,05,03,48,20.10
2017,04,05,03,49,16.70
2017,04,05,03,50,17.20
2017,04,05,03,51,13.30
2017,04,05,03,52,17.30
2017,04,05,03,53,11.50
2017,04,05,03,54,17.90
2017,04,05,03,55,14.90
2017,04,05,03,56,18.20
2017,04,05,03,57,20.50
2017,04,05,03,58,14.50
2017,04,05,03,59,14.60
2017,04,05,04,00,20.90
2017,04,05,04,01,18.00
2017,04,05,04,02,10.50
2017,04,05,04,03,15.90
2017,04,05,04,04,13.00
2017,04,05,04,05,15.20
2017,04,05,04,06,7.90
2017,04,05,04,07,11.20
2017,04,05,04,08,18.20
2017,04,05,04,09,16.70
2017,04,05,04,10,19.60
2017,04,05,04,11,16.70
2017,04,05,04,12,16.30
2017,04,05,04,13,15.60
2017,04,05,04,14,17.60
2017,04,05,04,15,16.90
2017,04,05,04,16,17.00
2017,04,05,04,17,15.50
2017,04,05,04,18,18.40
2017,04,05,04,19,17.40
2017,04,05,04,20,12.20
2017,04,05,04,21,14.00
2017,04,05,04,22,17.90
2017,04,05,04,23,14.80
2017,04,05,04,24,11.70
2017,04,05,04,25,16.40
2017,04,05,04,26,18.00
2017,04,05,04,27,17.70
2017,04,05,04,28,12.10
2017,04,05,04,29,18.00
2017,04,05,04,30,15.10
2017,04,05,04,31,9.40
2017,04,05,04,32,17.10
2017,04,05,04,33,16.30
2017,04,05,04,34,10.90
2017,04,05,04,35,10.40
2017,04,05,04,36,15.00
2017,04,05,04,37,14.60
2017,04,05,04,38,13.00
2017,04,05,04,39,15.30
2017,04,05,04,40,10.90
2017,04,05,04,41,11.30
2017,04,05,04,42,12.50
2017,04,05,04,43,14.20
2017,04,05,04,44,11.30
2017,04,05,04,45,7.90
2017,04,05,04,46,3.80
2017,04,05,04,47,8.30
2017,04,05,04,48,11.30
2017,04,05,04,49,14.10
2017,04,05,04,50,17.60
2017,04,05,04,51,12.70
2017,04,05,04,52,15.80
2017,04,05,04,53,12.40
2017,04,05,04,54,12.60
2017,04,05,04,55,11.70
2017,04,05,04,56,13.90
2017,04,05,04,57,12.70
2017,04,05,04,58,9.00
2017,04,05,04,59,10.50
2017,04,05,05,00,7.90
2017,04,05,05,01,7.50
2017,04,05,05,02,10.10
2017,04,05,05,03,13.20
2017,04,05,05,04,10.50
2017,04,05,05,05,4.90
2017,04,05,05,06,6.80
2017,04,05,05,07,9.70
2017,04,05,05,08,4.90
2017,04,05,05,09,6.10
2017,04,05,05,10,11.10
2017,04,05,05,11,14.60
2017,04,05,05,12,9.80
2017,04,05,05,13,12.10
2017,04,05,05,14,12.60
2017,04,05,05,15,8.30
2017,04,05,05,16,10.30
2017,04,05,05,17,9.80
2017,04,05,05,18,6.00
2017,04,05,05,19,13.20
2017,04,05,05,20,9.30
2017,04,05,05,21,8.00
2017,04,05,05,22,10.20
2017,04,05,05,23,10.70
2017,04,05,05,24,6.40
2017,04,05,05,25,9.80
2017,04,05,05,26,9.60
2017,04,05,05,27,8.50
2017,04,05,05,28,10.10
2017,04,05,05,29,8.30
2017,04,05,05,30,10.70
2017,04,05,05,31,10.20
2017,04,05,05,32,7.70
2017,04,05,05,33,10.40
2017,04,05,05,34,11.20
2017,04,05,05,35,7.90
2017,04,05,05,36,9.40
2017,04,05,05,37,9.40
2017,04,05,05,38,9.70
2017,04,05,05,39,8.80
2017,04,05,05,40,11.00
2017,04,05,05,41,9.30
2017,04,05,05,42,10.10
2017,04,05,05,43,8.00
2017,04,05,05,44,7.30
2017,04,05,05,45,9.50
2017,04,05,05,46,9.90
2017,04,05,05,47,9.80
2017,04,05,05,48,10.80
2017,04,05,05,49,13.10
2017,04,05,05,50,5.50
2017,04,05,05,51,10.30
2017,04,05,05,52,5.70
2017,04,05,05,53,13.10
2017,04,05,05,54,16.30
2017,04,05,05,55,9.90
2017,04,05,05,56,6.70
2017,04,05,05,57,10.20
2017,04,05,05,58,7.60
2017,04,05,05,59,5.70
2017,04,05,06,00,4.50
2017,04,05,06,01,5.80
2017,04,05,06,02,4.80
2017,04,05,06,03,5.90
2017,04,05,06,04,4.30
2017,04,05,06,05,6.90
2017,04,05,06,06,6.30
2017,04,05,06,07,6.80
2017,04,05,06,08,5.70
2017,04,05,06,09,5.60
2017,04,05,06,10,2.10
2017,04,05,06,11,4.30
2017,04,05,06,12,4.30
2017,04,05,06,13,4.20
2017,04,05,06,14,7.70
2017,04,05,06,15,14.60
2017,04,05,06,16,10.70
2017,04,05,06,17,8.60
2017,04,05,06,18,13.50
2017,04,05,06,19,13.80
2017,04,05,06,20,11.50
2017,04,05,06,21,5.30
2017,04,05,06,22,9.20
2017,04,05,06,23,8.60
2017,04,05,06,24,8.20
2017,04,05,06,25,9.20
2017,04,05,06,26,6.30
2017,04,05,06,27,6.20
2017,04,05,06,28,6.10
2017,04,05,06,29,5.20
2017,04,05,06,30,6.20
2017,04,05,06,31,8.30
2017,04,05,06,32,7.80
2017,04,05,06,33,5.00
2017,04,05,06,34,3.20
2017,04,05,06,35,1.40
2017,04,05,06,36,2.80
2017,04,05,06,37,3.00
2017,04,05,06,38,1.10
2017,04,05,06,39,1.70
2017,04,05,06,40,4.60
2017,04,05,06,41,2.40
2017,04,05,06,42,3.20
2017,04,05,06,43,3.00
2017,04,05,06,44,2.90
2017,04,05,06,45,3.20
2017,04,05,06,46,3.30
2017,04,05,06,47,1.50
2017,04,05,06,48,0.50
2017,04,05,06,49,3.60
2017,04,05,06,50,2.70
2017,04,05,06,51,2.90
2017,04,05,06,52,3.30
2017,04,05,06,53,1.30
2017,04,05,06,54,6.10
2017,04,05,06,55,3.50
2017,04,05,06,56,8.40
2017,04,05,06,57,5.60
2017,04,05,06,58,10.00
2017,04,05,06,59,11.90
2017,04,05,07,00,11.00
2017,04,05,07,01,6.00
2017,04,05,07,02,3.10
2017,04,05,07,03,3.40
2017,04,05,07,04,7.10
2017,04,05,07,05,12.50
2017,04,05,07,06,8.70
2017,04,05,07,07,7.10
2017,04,05,07,08,9.20
2017,04,05,07,09,7.40
2017,04,05,07,10,5.90
2017,04,05,07,11,6.60
2017,04,05,07,12,8.40
2017,04,05,07,13,7.90
2017,04,05,07,14,6.70
2017,04,05,07,15,5.30
2017,04,05,07,16,2.20
2017,04,05,07,17,2.60
2017,04,05,07,18,2.80
2017,04,05,07,19,4.30
2017,04,05,07,20,3.00
2017,04,05,07,21,1.50
2017,04,05,07,22,0.30
2017,04,05,07,23,3.90
2017,04,05,07,24,5.40
2017,04,05,07,25,6.90
2017,04,05,07,26,6.80
2017,04,05,07,27,7.10
2017,04,05,07,28,5.90
2017,04,05,07,29,5.50
2017,04,05,07,30,6.90
2017,04,05,07,31,8.30
2017,04,05,07,32,5.00
2017,04,05,07,33,5.40
2017,04,05,07,34,4.40
2017,04,05,07,35,3.20
2017,04,05,07,36,3.90
2017,04,05,07,37,1.70
2017,04,05,07,38,2.90
2017,04,05,07,39,4.70
2017,04,05,07,40,4.90
2017,04,05,07,41,5.30
2017,04,05,07,42,3.90
2017,04,05,07,43,2.70
2017,04,05,07,44,3.50
2017,04,05,07,45,3.70
2017,04,05,07,46,1.70
2017,04,05,07,47,1.70
2017,04,05,07,48,3.20
2017,04,05,07,49,7.50
2017,04,05,07,50,7.40
2017,04,05,07,51,6.60
2017,04,05,07,52,3.70
2017,04,05,07,53,3.00
2017,04,05,07,54,8.50
2017,04,05,07,55,9.80
2017,04,05,07,56,9.40
2017,04,05,07,57,10.80
2017,04,05,07,58,10.40
2017,04,05,07,59,4.50
2017,04,05,08,00,7.20
2017,04,05,08,01,6.40
2017,04,05,08,02,12.60
2017,04,05,08,03,15.30
2017,04,05,08,04,8.70
2017,04,05,08,05,6.80
2017,04,05,08,06,14.40
2017,04,05,08,07,13.30
2017,04,05,08,08,15.10
2017,04,05,08,09,11.90
2017,04,05,08,10,12.10
2017,04,05,08,11,8.40
2017,04,05,08,12,6.50
2017,04,05,08,13,8.90
2017,04,05,08,14,6.60
2017,04,05,08,15,10.50
2017,04,05,08,16,9.20
2017,04,05,08,17,12.20
2017,04,05,08,18,13.10
2017,04,05,08,19,12.40
2017,04,05,08,20,13.10
2017,04,05,08,21,7.10
2017,04,05,08,22,11.60
2017,04,05,08,23,14.90
2017,04,05,08,24,10.00
2017,04,05,08,25,9.80
2017,04,05,08,26,7.70
2017,04,05,08,27,10.30
2017,04,05,08,28,12.80
2017,04,05,08,29,9.90
2017,04,05,08,30,15.20
2017,04,05,08,31,13.70
2017,04,05,08,32,10.00
2017,04,05,08,33,10.80
2017,04,05,08,34,8.70
2017,04,05,08,35,13.10
2017,04,05,08,36,8.20
2017,04,05,08,37,6.40
2017,04,05,08,38,8.70
2017,04,05,08,39,13.00
2017,04,05,08,40,14.40
2017,04,05,08,41,13.00
2017,04,05,08,42,10.90
2017,04,05,08,43,14.10
2017,04,05,08,44,11.60
2017,04,05,08,45,14.50
2017,04,05,08,46,11.10
2017,04,05,08,47,10.10
2017,04,05,08,48,4.90
2017,04,05,08,49,4.60
2017,04,05,08,50,7.30
2017,04,05,08,51,8.20
2017,04,05,08,52,11.20
2017,04,05,08,53,9.10
2017,04,05,08,54,15.60
2017,04,05,08,55,5.40
2017,04,05,08,56,5.90
2017,04,05,08,57,6.90
2017,04,05,08,58,7.50
2017,04,05,08,59,8.50
2017,04,05,09,00,12.60
2017,04,05,09,01,10.20
2017,04,05,09,02,9.80
2017,04,05,09,03,8.00
2017,04,05,09,04,8.40
2017,04,05,09,05,9.30
2017,04,05,09,06,11.20
2017,04,05,09,07,9.90
2017,04,05,09,08,8.20
2017,04,05,09,09,7.40
2017,04,05,09,10,10.90
2017,04,05,09,11,6.80
2017,04,05,09,12,6.10
2017,04,05,09,13,5.20
2017,04,05,09,14,6.00
2017,04,05,09,15,6.80
2017,04,05,09,16,9.80
2017,04,05,09,17,8.60
2017,04,05,09,18,9.90
2017,04,05,09,19,10.20
2017,04,05,09,20,8.10
2017,04,05,09,21,6.00
2017,04,05,09,22,8.50
2017,04,05,09,23,11.40
2017,04,05,09,24,11.20
2017,04,05,09,25,7.00
2017,04,05,09,26,9.20
2017,04,05,09,27,4.30
2017,04,05,09,28,3.10
2017,04,05,09,29,3.90
2017,04,05,09,30,5.10
2017,04,05,09,31,8.30
2017,04,05,09,32,8.00
2017,04,05,09,33,6.90
2017,04,05,09,34,8.10
2017,04,05,09,35,8.50
2017,04,05,09,36,8.30
2017,04,05,09,37,5.50
2017,04,05,09,38,6.50
2017,04,05,09,39,11.70
2017,04,05,09,40,6.60
2017,04,05,09,41,8.90
2017,04,05,09,42,6.70
2017,04,05,09,43,4.00
2017,04,05,09,44,12.50
2017,04,05,09,45,15.20
2017,04,05,09,46,10.20
2017,04,05,09,47,7.90
2017,04,05,09,48,7.50
2017,04,05,09,49,4.70
2017,04,05,09,50,6.10
2017,04,05,09,51,8.90
2017,04,05,09,52,13.30
2017,04,05,09,53,9.80
2017,04,05,09,54,10.70
2017,04,05,09,55,10.70
2017,04,05,09,56,10.30
2017,04,05,09,57,9.00
2017,04,05,09,58,8.80
2017,04,05,09,59,10.30
2017,04,05,10,00,9.70
2017,04,05,10,01,8.90
2017,04,05,10,02,10.30
2017,04,05,10,03,12.00
2017,04,05,10,04,7.70
2017,04,05,10,05,10.80
2017,04,05,10,06,8.90
2017,04,05,10,07,8.90
2017,04,05,10,08,10.90
2017,04,05,10,09,15.80
2017,04,05,10,10,10.00
2017,04,05,10,11,11.80
2017,04,05,10,12,11.70
2017,04,05,10,13,13.70
2017,04,05,10,14,10.30
2017,04,05,10,15,11.70
2017,04,05,10,16,15.20
2017,04,05,10,17,13.70
2017,04,05,10,18,13.40
2017,04,05,10,19,12.60
2017,04,05,10,20,7.60
2017,04,05,10,21,11.30
2017,04,05,10,22,17.30
2017,04,05,10,23,10.30
2017,04,05,10,24,12.30
2017,04,05,10,25,14.50
2017,04,05,10,26,16.50
2017,04,05,10,27,13.40
2017,04,05,10,28,9.50
2017,04,05,10,29,16.70
2017,04,05,10,30,17.60
2017,04,05,10,31,15.00
2017,04,05,10,32,9.70
2017,04,05,10,33,13.00
2017,04,05,10,34,8.90
2017,04,05,10,35,12.10
2017,04,05,10,36,9.20
2017,04,05,10,37,12.00
2017,04,05,10,38,13.30
2017,04,05,10,39,12.10
2017,04,05,10,40,9.20
2017,04,05,10,41,13.60
2017,04,05,10,42,15.20
2017,04,05,10,43,14.10
2017,04,05,10,44,10.80
2017,04,05,10,45,10.90
2017,04,05,10,46,9.50
2017,04,05,10,47,13.00
2017,04,05,10,48,11.80
2017,04,05,10,49,8.50
2017,04,05,10,50,13.50
2017,04,05,10,51,16.10
2017,04,05,10,52,11.30
2017,04,05,10,53,10.20
2017,04,05,10,54,9.60
2017,04,05,10,55,10.70
2017,04,05,10,56,11.90
2017,04,05,10,57,15.20
2017,04,05,10,58,8.20
2017,04,05,10,59,11.40
2017,04,05,11,00,15.30
2017,04,05,11,01,10.30
2017,04,05,11,02,11.20
2017,04,05,11,03,9.50
2017,04,05,11,04,10.30
2017,04,05,11,05,12.80
2017,04,05,11,06,9.80
2017,04,05,11,07,13.40
2017,04,05,11,08,9.00
2017,04,05,11,09,9.50
2017,04,05,11,10,11.20
2017,04,05,11,11,10.80
2017,04,05,11,12,9.20
2017,04,05,11,13,10.60
2017,04,05,11,14,11.60
2017,04,05,11,15,9.50
2017,04,05,11,16,9.70
2017,04,05,11,17,11.30
2017,04,05,11,18,11.10
2017,04,05,11,19,10.50
2017,04,05,11,20,11.20
2017,04,05,11,21,11.70
2017,04,05,11,22,9.90
2017,04,05,11,23,10.90
2017,04,05,11,24,9.80
2017,04,05,11,25,12.90
2017,04,05,11,26,12.50
2017,04,05,11,27,13.60
2017,04,05,11,28,11.40
2017,04,05,11,29,15.80
2017,04,05,11,30,8.60
2017,04,05,11,31,11.90
2017,04,05,11,32,14.70
2017,04,05,11,33,12.70
2017,04,05,11,34,12.10
2017,04,05,11,35,12.00
2017,04,05,11,36,10.30
2017,04,05,11,37,13.10
2017,04,05,11,38,8.10
2017,04,05,11,39,9.70
2017,04,05,11,40,11.50
2017,04,05,11,41,12.60
2017,04,05,11,42,8.90
2017,04,05,11,43,9.10
2017,04,05,11,44,11.20
2017,04,05,11,45,12.00
2017,04,05,11,46,7.60
2017,04,05,11,47,7.60
2017,04,05,11,48,11.10
2017,04,05,11,49,9.40
2017,04,05,11,50,8.80
2017,04,05,11,51,7.20
2017,04,05,11,52,9.20
2017,04,05,11,53,8.90
2017,04,05,11,54,15.50
2017,04,05,11,55,14.50
2017,04,05,11,56,11.50
2017,04,05,11,57,11.30
2017,04,05,11,58,12.00
2017,04,05,11,59,11.20
2017,04,05,12,00,16.90
2017,04,05,12,01,9.40
2017,04,05,12,02,12.80
2017,04,05,12,03,8.60
2017,04,05,12,04,8.50
2017,04,05,12,05,8.30
2017,04,05,12,06,9.60
2017,04,05,12,07,11.40
2017,04,05,12,08,11.00
2017,04,05,12,09,14.90
2017,04,05,12,10,6.80
2017,04,05,12,11,7.40
2017,04,05,12,12,8.40
2017,04,05,12,13,8.80
2017,04,05,12,14,9.50
2017,04,05,12,15,6.80
2017,04,05,12,16,6.80
2017,04,05,12,17,10.90
2017,04,05,12,18,8.10
2017,04,05,12,19,6.70
2017,04,05,12,20,6.20
2017,04,05,12,21,8.90
2017,04,05,12,22,8.90
2017,04,05,12,23,10.30
2017,04,05,12,24,6.10
2017,04,05,12,25,5.40
2017,04,05,12,26,7.90
2017,04,05,12,27,8.80
2017,04,05,12,28,5.90
2017,04,05,12,29,6.70
2017,04,05,12,30,4.10
2017,04,05,12,31,14.90
2017,04,05,12,32,10.20
2017,04,05,12,33,11.70
2017,04,05,12,34,7.20
2017,04,05,12,35,6.70
2017,04,05,12,36,4.50
2017,04,05,12,37,3.90
2017,04,05,12,38,12.40
2017,04,05,12,39,12.60
2017,04,05,12,40,9.90
2017,04,05,12,41,7.20
2017,04,05,12,42,10.80
2017,04,05,12,43,10.30
2017,04,05,12,44,5.30
2017,04,05,12,45,4.30
2017,04,05,12,46,3.50
2017,04,05,12,47,5.20
2017,04,05,12,48,7.20
2017,04,05,12,49,7.20
2017,04,05,12,50,6.10
2017,04,05,12,51,5.60
2017,04,05,12,52,5.20
2017,04,05,12,53,5.30
2017,04,05,12,54,3.00
2017,04,05,12,55,3.10
2017,04,05,12,56,5.90
2017,04,05,12,57,4.70
2017,04,05,12,58,7.00
2017,04,05,12,59,7.10
2017,04,05,13,00,12.30
2017,04,05,13,01,6.30
2017,04,05,13,02,5.60
2017,04,05,13,03,6.40
2017,04,05,13,04,5.40
2017,04,05,13,05,7.80
2017,04,05,13,06,8.40
2017,04,05,13,07,8.70
2017,04,05,13,08,5.40
2017,04,05,13,09,11.90
2017,04,05,13,10,8.10
2017,04,05,13,11,6.50
2017,04,05,13,12,9.40
2017,04,05,13,13,6.10
2017,04,05,13,14,7.40
2017,04,05,13,15,5.60
2017,04,05,13,16,3.90
2017,04,05,13,17,6.90
2017,04,05,13,18,4.50
2017,04,05,13,19,8.40
2017,04,05,13,20,7.60
2017,04,05,13,21,8.40
2017,04,05,13,22,7.90
2017,04,05,13,23,8.30
2017,04,05,13,24,8.40
2017,04,05,13,25,9.10
2017,04,05,13,26,10.80
2017,04,05,13,27,12.90
2017,04,05,13,28,7.60
2017,04,05,13,29,12.70
2017,04,05,13,30,4.30
2017,04,05,13,31,9.20
2017,04,05,13,32,10.40
2017,04,05,13,33,9.30
2017,04,05,13,34,11.70
2017,04,05,13,35,14.90
2017,04,05,13,36,7.60
2017,04,05,13,37,8.10
2017,04,05,13,38,8.90
2017,04,05,13,39,5.70
2017,04,05,13,40,9.30
2017,04,05,13,41,11.20
2017,04,05,13,42,10.60
2017,04,05,13,43,5.90
2017,04,05,13,44,4.80
2017,04,05,13,45,7.90
2017,04,05,13,46,8.60
2017,04,05,13,47,6.80
2017,04,05,13,48,10.90
2017,04,05,13,49,9.70
2017,04,05,13,50,5.90
2017,04,05,13,51,8.60
2017,04,05,13,52,8.60
2017,04,05,13,53,11.90
2017,04,05,13,54,6.00
2017,04,05,13,55,4.30
2017,04,05,13,56,4.30
2017,04,05,13,57,2.90
2017,04,05,13,58,4.60
2017,04,05,13,59,2.80
2017,04,05,14,00,3.60
2017,04,05,14,01,3.20
2017,04,05,14,02,6.70
2017,04,05,14,03,9.80
2017,04,05,14,04,11.00
2017,04,05,14,05,7.70
2017,04,05,14,06,7.80
2017,04,05,14,07,4.80
2017,04,05,14,08,11.30
2017,04,05,14,09,9.50
2017,04,05,14,10,11.30
2017,04,05,14,11,9.30
2017,04,05,14,12,6.90
2017,04,05,14,13,8.20
2017,04,05,14,14,10.60
2017,04,05,14,15,9.40
2017,04,05,14,16,10.40
2017,04,05,14,17,10.70
2017,04,05,14,18,7.40
2017,04,05,14,19,9.80
2017,04,05,14,20,5.40
2017,04,05,14,21,4.80
2017,04,05,14,22,5.00
2017,04,05,14,23,4.40
2017,04,05,14,24,4.90
2017,04,05,14,25,3.90
2017,04,05,14,26,3.20
2017,04,05,14,27,7.40
2017,04,05,14,28,5.50
2017,04,05,14,29,5.50
2017,04,05,14,30,4.90
2017,04,05,14,31,8.30
2017,04,05,14,32,4.40
2017,04,05,14,33,9.40
2017,04,05,14,34,9.50
2017,04,05,14,35,8.40
2017,04,05,14,36,8.00
2017,04,05,14,37,6.40
2017,04,05,14,38,4.40
2017,04,05,14,39,5.90
2017,04,05,14,40,6.30
2017,04,05,14,41,6.10
2017,04,05,14,42,5.00
2017,04,05,14,43,4.30
2017,04,05,14,44,4.20
2017,04,05,14,45,7.20
2017,04,05,14,46,4.90
2017,04,05,14,47,5.00
2017,04,05,14,48,6.40
2017,04,05,14,49,5.30
2017,04,05,14,50,5.50
2017,04,05,14,51,9.40
2017,04,05,14,52,6.10
2017,04,05,14,53,5.50
2017,04,05,14,54,4.20
2017,04,05,14,55,3.50
2017,04,05,14,56,3.80
2017,04,05,14,57,7.80
2017,04,05,14,58,5.50
2017,04,05,14,59,8.10
2017,04,05,15,00,4.40
2017,04,05,15,01,6.60
2017,04,05,15,02,10.50
2017,04,05,15,03,7.20
2017,04,05,15,04,9.90
2017,04,05,15,05,10.60
2017,04,05,15,06,8.90
2017,04,05,15,07,7.70
2017,04,05,15,08,5.20
2017,04,05,15,09,8.80
2017,04,05,15,10,8.90
2017,04,05,15,11,3.20
2017,04,05,15,12,3.90
2017,04,05,15,13,6.50
2017,04,05,15,14,7.70
2017,04,05,15,15,6.80
2017,04,05,15,16,8.60
2017,04,05,15,17,9.10
2017,04,05,15,18,8.30
2017,04,05,15,19,3.70
2017,04,05,15,20,8.10
2017,04,05,15,21,6.50
2017,04,05,15,22,5.60
2017,04,05,15,23,3.90
2017,04,05,15,24,2.90
2017,04,05,15,25,4.40
2017,04,05,15,26,7.30
2017,04,05,15,27,3.10
2017,04,05,15,28,4.70
2017,04,05,15,29,4.90
2017,04,05,15,30,1.70
2017,04,05,15,31,2.90
2017,04,05,15,32,5.60
2017,04,05,15,33,5.70
2017,04,05,15,34,5.50
2017,04,05,15,35,8.20
2017,04,05,15,36,8.00
2017,04,05,15,37,5.80
2017,04,05,15,38,6.70
2017,04,05,15,39,4.90
2017,04,05,15,40,6.30
2017,04,05,15,41,5.70
2017,04,05,15,42,8.70
2017,04,05,15,43,9.20
2017,04,05,15,44,6.10
2017,04,05,15,45,3.40
2017,04,05,15,46,7.30
2017,04,05,15,47,5.20
2017,04,05,15,48,2.90
2017,04,05,15,49,4.80
2017,04,05,15,50,6.00
2017,04,05,15,51,5.50
2017,04,05,15,52,7.60
2017,04,05,15,53,7.80
2017,04,05,15,54,8.20
2017,04,05,15,55,5.10
2017,04,05,15,56,2.70
2017,04,05,15,57,2.50
2017,04,05,15,58,4.30
2017,04,05,15,59,5.70
2017,04,05,16,00,4.30
2017,04,05,16,01,4.60
2017,04,05,16,02,4.90
2017,04,05,16,03,8.70
2017,04,05,16,04,10.20
2017,04,05,16,05,7.70
2017,04,05,16,06,4.70
2017,04,05,16,07,3.90
2017,04,05,16,08,5.30
2017,04,05,16,09,2.50
2017,04,05,16,10,5.30
2017,04,05,16,11,4.40
2017,04,05,16,12,4.20
2017,04,05,16,13,7.30
2017,04,05,16,14,4.30
2017,04,05,16,15,5.10
2017,04,05,16,16,7.20
2017,04,05,16,17,6.40
2017,04,05,16,18,6.80
2017,04,05,16,19,4.90
2017,04,05,16,20,4.30
2017,04,05,16,21,6.30
2017,04,05,16,22,5.50
2017,04,05,16,23,4.60
2017,04,05,16,24,7.50
2017,04,05,16,25,4.90
2017,04,05,16,26,4.40
2017,04,05,16,27,3.10
2017,04,05,16,28,6.40
2017,04,05,16,29,10.30
2017,04,05,16,30,14.70
2017,04,05,16,31,8.20
2017,04,05,16,32,8.70
2017,04,05,16,33,7.20
2017,04,05,16,34,8.20
2017,04,05,16,35,5.80
2017,04,05,16,36,6.90
2017,04,05,16,37,5.30
2017,04,05,16,38,6.70
2017,04,05,16,39,7.40
2017,04,05,16,40,8.70
2017,04,05,16,41,5.70
2017,04,05,16,42,4.60
2017,04,05,16,43,7.30
2017,04,05,16,44,5.60
2017,04,05,16,45,7.50
2017,04,05,16,46,8.90
2017,04,05,16,47,6.80
2017,04,05,16,48,7.80
2017,04,05,16,49,11.30
2017,04,05,16,50,6.10
2017,04,05,16,51,6.90
2017,04,05,16,52,7.00
2017,04,05,16,53,4.60
2017,04,05,16,54,4.90
2017,04,05,16,55,8.30
2017,04,05,16,56,8.60
2017,04,05,16,57,9.50
2017,04,05,16,58,6.10
2017,04,05,16,59,5.30
2017,04,05,17,00,9.10
2017,04,05,17,01,9.60
2017,04,05,17,02,9.40
2017,04,05,17,03,9.10
2017,04,05,17,04,7.30
2017,04,05,17,05,4.20
2017,04,05,17,06,4.30
2017,04,05,17,07,11.70
2017,04,05,17,08,8.70
2017,04,05,17,09,9.90
2017,04,05,17,10,6.60
2017,04,05,17,11,6.20
2017,04,05,17,12,5.70
2017,04,05,17,13,7.70
2017,04,05,17,14,5.60
2017,04,05,17,15,6.10
2017,04,05,17,16,4.80
2017,04,05,17,17,9.00
2017,04,05,17,18,8.30
2017,04,05,17,19,5.60
2017,04,05,17,20,6.00
2017,04,05,17,21,8.20
2017,04,05,17,22,3.70
2017,04,05,17,23,6.90
2017,04,05,17,24,4.90
2017,04,05,17,25,5.70
2017,04,05,17,26,5.40
2017,04,05,17,27,7.60
2017,04,05,17,28,2.80
2017,04,05,17,29,6.90
2017,04,05,17,30,8.90
2017,04,05,17,31,10.30
2017,04,05,17,32,11.20
2017,04,05,17,33,7.00
2017,04,05,17,34,4.20
2017,04,05,17,35,5.90
2017,04,05,17,36,8.30
2017,04,05,17,37,10.70
2017,04,05,17,38,7.70
2017,04,05,17,39,12.10
2017,04,05,17,40,11.30
2017,04,05,17,41,11.60
2017,04,05,17,42,9.80
2017,04,05,17,43,6.60